GFSNGP_700_temp_054.txt.gz
Temp
6 6 6 6 6 6 6 6 6 6 7 7 6 6 6 6 5 5 5 4 4 3 3 2 2 1 1 0 0 -0 -1 -2 -2 -3 -3 -4 -3 -4 -4 -5 -6 -8 -9 -10
6 6 6 6 6 6 6 6 6 6 6 6 6 5 6 6 5 5 4 4 4 3 3 2 2 1 1 0 -0 -0 -1 -2 -3 -3 -3 -3 -4 -4 -4 -6 -8 -9 -9 -10
5 5 5 5 5 5 5 6 6 5 5 6 5 5 5 5 4 4 4 4 3 3 3 2 1 1 0 0 0 -0 -1 -2 -3 -3 -4 -4 -4 -5 -8 -8 -9 -9 -10 -10
4 4 -1 5 5 5 5 5 5 5 5 5 5 4 4 3 3 3 3 3 3 2 2 1 1 1 1 -0 -1 -2 -2 -3 -3 -3 -4 -4 -6 -7 -8 -9 -9 -10 -10 -10
3 3 4 5 4 4 5 3 3 4 4 4 4 4 3 3 3 2 2 2 1 1 1 0 0 -0 -1 -1 -2 -2 -3 -3 -4 -4 -4 -7 -7 -9 -8 -9 -10 -10 -10 -11
3 3 -2 5 5 4 4 4 3 3 3 3 3 3 3 2 2 2 1 1 1 0 -0 -1 -1 -2 -2 -3 -3 -3 -4 -4 -4 -7 -7 -8 -8 -8 -9 -10 -10 -10 -11 -11
3 3 3 4 4 4 3 4 4 3 3 2 2 2 2 2 2 1 1 0 -0 -1 -2 -3 -3 -3 -4 -4 -4 -4 -5 -5 -6 -7 -8 -8 -8 -9 -10 -10 -10 -11 -11 -11
2 2 2 3 3 3 4 4 3 3 2 2 2 2 2 1 1 0 -0 -1 -2 -3 -4 -4 -4 -4 -4 -5 -5 -5 -6 -7 -8 -8 -8 -9 -9 -10 -10 -11 -11 -11 -11 -12
3 3 3 3 3 3 3 3 3 2 2 1 1 1 0 -0 -1 -1 -2 -3 -4 -4 -4 -4 -6 -6 -6 -6 -6 -7 -8 -8 -8 -9 -9 -9 -10 -10 -11 -11 -11 -12 -12 -12
3 2 2 2 2 2 2 2 2 1 1 1 0 -0 -1 -1 -2 -3 -4 -3 -4 -4 -5 -6 -6 -6 -6 -7 -8 -8 -8 -9 -9 -9 -10 -10 -11 -11 -11 -12 -12 -12 -13 -13
3 2 2 2 2 2 1 1 1 1 0 0 -0 -1 -1 -2 -4 -4 -4 -4 -4 -6 -6 -7 -7 -7 -8 -8 -8 -9 -9 -9 -10 -10 -10 -11 -11 -11 -12 -12 -13 -13 -14 -14
3 3 2 2 2 1 1 1 0 0 -0 -1 -1 -2 -2 -4 -5 -5 -5 -6 -6 -7 -7 -7 -8 -8 -8 -9 -9 -9 -10 -10 -10 -10 -10 -11 -11 -11 -11 -12 -13 -14 -14 -16
3 2 2 2 1 1 0 0 -0 -1 -1 -1 -2 -2 -3 -4 -5 -5 -6 -7 -7 -7 -8 -8 -8 -9 -9 -10 -10 -10 -10 -10 -11 -11 -11 -11 -12 -12 -12 -12 -13 -14 -15 -16
2 2 1 1 1 0 0 -0 -1 -1 -2 -2 -3 -3 -4 -5 -5 -6 -7 -7 -8 -8 -8 -9 -9 -10 -10 -10 -11 -11 -11 -11 -12 -12 -12 -12 -12 -13 -13 -14 -14 -14 -15 -16
2 1 1 1 -0 -1 -1 -1 -2 -2 -3 -3 -4 -5 -6 -6 -7 -7 -8 -8 -8 -9 -9 -10 -10 -11 -11 -11 -11 -11 -11 -11 -11 -12 -12 -13 -13 -14 -14 -15 -15 -16 -16 -17
1 1 0 -0 -1 -1 -1 -2 -3 -4 -4 -5 -6 -6 -7 -7 -8 -8 -9 -9 -10 -10 -10 -11 -11 -11 -11 -11 -11 -11 -11 -12 -12 -12 -13 -14 -14 -15 -16 -17 -17 -17 -17 -18
0 -0 -1 -1 -1 -2 -3 -4 -4 -5 -6 -6 -7 -7 -8 -8 -9 -9 -10 -10 -10 -11 -11 -11 -11 -12 -12 -12 -12 -12 -12 -12 -13 -14 -15 -15 -16 -16 -17 -17 -17 -18 -17 -18
-1 -1 -2 -2 -3 -4 -4 -5 -5 -6 -7 -7 -8 -8 -9 -9 -10 -10 -11 -11 -11 -11 -12 -12 -12 -12 -12 -12 -12 -13 -13 -14 -15 -15 -16 -17 -17 -18 -18 -18 -18 -18 -18 -18
-2 -2 -2 -3 -4 -5 -6 -6 -7 -8 -8 -9 -9 -10 -10 -11 -11 -11 -11 -12 -12 -12 -12 -12 -12 -12 -12 -13 -13 -14 -14 -15 -16 -17 -17 -17 -18 -18 -19 -20 -20 -19 -19 -18
-3 -3 -4 -5 -6 -7 -8 -8 -8 -9 -10 -10 -10 -11 -11 -11 -12 -12 -12 -12 -12 -13 -13 -13 -13 -13 -13 -14 -14 -15 -16 -17 -17 -17 -18 -19 -19 -20 -20 -21 -20 -20 -20 -20
-5 -6 -6 -7 -8 -8 -8 -9 -10 -11 -11 -11 -11 -12 -12 -12 -12 -12 -13 -13 -13 -13 -13 -13 -13 -14 -14 -15 -16 -17 -17 -18 -18 -19 -20 -20 -20 -21 -22 -22 -22 -21 -21 -21
-7 -7 -8 -8 -9 -9 -10 -11 -11 -11 -11 -12 -12 -12 -13 -13 -13 -13 -13 -13 -13 -13 -13 -14 -14 -15 -16 -16 -17 -18 -18 -19 -19 -20 -21 -21 -21 -22 -23 -24 -24 -23 -23 -22
-8 -8 -9 -9 -10 -10 -11 -11 -12 -12 -12 -12 -13 -13 -13 -13 -14 -14 -14 -14 -14 -14 -14 -15 -15 -16 -17 -18 -18 -19 -19 -20 -20 -21 -21 -21 -22 -22 -23 -24 -24 -24 -24 -23
-9 -9 -9 -10 -11 -11 -12 -12 -12 -13 -13 -13 -13 -13 -14 -14 -14 -14 -14 -14 -14 -15 -15 -16 -17 -18 -18 -19 -19 -20 -20 -21 -21 -21 -22 -22 -22 -22 -23 -23 -24 -24 -24 -24
-10 -10 -10 -11 -11 -12 -12 -13 -13 -13 -13 -14 -14 -14 -14 -15 -15 -15 -15 -15 -15 -16 -17 -17 -18 -19 -19 -19 -20 -20 -21 -21 -21 -22 -22 -22 -22 -22 -23 -23 -23 -24 -24 -24
-10 -11 -11 -12 -12 -13 -13 -13 -13 -14 -14 -15 -15 -15 -15 -15 -15 -16 -16 -16 -16 -17 -18 -18 -19 -19 -20 -20 -21 -21 -21 -22 -22 -22 -22 -22 -22 -22 -23 -23 -23 -23 -23 -23
-11 -12 -12 -12 -13 -13 -14 -14 -14 -15 -15 -15 -15 -16 -16 -16 -16 -16 -17 -17 -18 -18 -19 -19 -20 -20 -20 -21 -21 -22 -22 -22 -22 -22 -22 -23 -23 -23 -23 -23 -23 -23 -23 -23

GFSNGP_700_temp_057.txt.gz
Temp
6 6 6 6 6 6 6 6 6 6 6 6 6 6 6 6 6 5 5 5 5 4 3 3 3 2 2 1 1 0 0 -0 -1 -1 -2 -2 -3 -4 -4 -4 -5 -5 -7 -7
6 6 6 6 6 6 6 6 5 6 6 6 6 6 6 6 6 5 5 5 4 4 3 3 2 2 1 1 0 -0 -0 -1 -2 -1 -2 -2 -3 -4 -4 -5 -6 -7 -7 -9
6 6 5 5 6 6 6 5 5 5 6 6 6 6 6 5 5 5 5 4 4 4 3 3 2 2 1 0 -0 -1 -1 -2 -2 -3 -3 -3 -4 -4 -4 -6 -7 -7 -8 -8
5 4 -1 5 5 5 5 5 5 5 5 5 5 5 5 5 4 4 4 4 3 3 2 2 1 1 1 0 -0 -1 -2 -2 -3 -3 -4 -3 -4 -4 -7 -7 -8 -8 -9 -9
4 4 4 4 4 5 4 4 4 5 5 4 4 4 4 4 3 3 3 2 1 1 1 0 0 -0 -1 -1 -2 -2 -3 -3 -3 -3 -4 -4 -6 -7 -7 -8 -9 -9 -9 -10
3 3 -1 4 4 4 4 4 4 4 4 4 3 3 3 3 2 2 1 1 0 0 0 -0 -1 -2 -2 -3 -3 -3 -3 -4 -4 -4 -6 -6 -7 -8 -9 -9 -10 -9 -10 -10
4 3 4 4 4 4 3 4 4 4 3 3 3 2 2 2 2 1 1 0 0 -0 -1 -1 -2 -3 -4 -4 -4 -4 -4 -5 -6 -6 -7 -7 -8 -9 -9 -10 -9 -9 -9 -10
3 2 2 3 3 3 4 4 4 3 3 2 2 2 2 2 1 1 0 -0 -1 -1 -2 -3 -4 -4 -4 -4 -5 -5 -6 -6 -6 -7 -8 -8 -9 -9 -9 -10 -9 -10 -10 -10
4 4 4 4 3 3 3 3 3 2 2 2 2 2 1 1 0 -0 -1 -1 -2 -3 -4 -5 -4 -4 -5 -6 -6 -6 -7 -7 -8 -8 -9 -9 -9 -9 -10 -10 -10 -10 -11 -11
4 4 3 3 3 3 3 2 2 2 2 1 1 1 0 -0 -1 -1 -2 -3 -4 -4 -4 -4 -4 -5 -6 -7 -7 -7 -8 -8 -9 -9 -10 -10 -10 -10 -10 -11 -11 -11 -11 -12
4 3 3 3 2 2 2 2 2 1 1 1 0 -0 -0 -1 -2 -2 -4 -4 -4 -4 -4 -5 -6 -7 -7 -7 -8 -8 -9 -9 -9 -9 -10 -10 -10 -10 -10 -11 -11 -12 -12 -13
5 5 4 3 3 2 2 2 1 1 1 0 -0 -1 -1 -2 -2 -4 -5 -5 -5 -5 -6 -7 -8 -8 -8 -9 -9 -9 -9 -10 -10 -10 -10 -10 -10 -10 -11 -11 -12 -12 -13 -14
4 3 3 2 2 2 1 1 1 0 0 -0 -1 -1 -2 -2 -3 -5 -6 -6 -7 -7 -8 -8 -8 -9 -9 -9 -9 -10 -10 -10 -10 -10 -11 -11 -11 -11 -11 -11 -12 -13 -13 -14
3 2 2 2 2 1 1 0 0 -0 -1 -1 -2 -2 -3 -4 -5 -6 -6 -7 -7 -8 -8 -9 -9 -9 -9 -10 -10 -10 -11 -11 -11 -11 -11 -11 -12 -12 -13 -13 -14 -14 -14 -15
3 2 2 1 1 1 0 -0 -1 -1 -2 -2 -3 -3 -4 -5 -6 -7 -7 -8 -8 -9 -9 -9 -9 -10 -10 -11 -11 -11 -11 -11 -11 -11 -12 -12 -13 -13 -14 -15 -16 -16 -16 -16
2 2 1 1 0 -0 -0 -1 -2 -2 -3 -3 -4 -5 -6 -6 -7 -8 -8 -8 -9 -9 -10 -10 -10 -11 -11 -11 -11 -11 -11 -12 -12 -12 -12 -13 -14 -15 -15 -16 -16 -17 -17 -18
1 1 1 0 -0 -1 -1 -2 -3 -3 -4 -5 -6 -7 -7 -8 -8 -9 -9 -9 -10 -10 -11 -11 -11 -11 -11 -11 -12 -12 -12 -12 -12 -13 -14 -15 -16 -16 -16 -17 -17 -18 -19 -19
-0 0 -1 -1 -2 -3 -3 -4 -4 -5 -6 -6 -8 -8 -9 -9 -10 -10 -10 -10 -11 -11 -11 -12 -12 -12 -12 -12 -12 -12 -13 -13 -13 -14 -15 -16 -17 -17 -18 -19 -19 -19 -20 -21
-2 -2 -2 -3 -3 -4 -5 -6 -6 -6 -7 -8 -9 -9 -10 -10 -10 -11 -11 -11 -12 -12 -12 -12 -12 -13 -13 -12 -13 -13 -13 -14 -15 -16 -16 -17 -18 -19 -20 -20 -20 -21 -21 -21
-3 -3 -3 -4 -4 -6 -6 -6 -7 -8 -8 -9 -10 -11 -11 -11 -11 -11 -12 -12 -12 -12 -13 -13 -13 -13 -13 -13 -13 -14 -15 -15 -16 -17 -17 -18 -19 -20 -20 -21 -21 -21 -22 -23
-4 -4 -5 -6 -6 -7 -7 -8 -9 -9 -9 -10 -11 -11 -11 -12 -12 -12 -12 -13 -13 -13 -13 -14 -13 -14 -14 -14 -14 -15 -16 -17 -17 -18 -19 -19 -20 -21 -21 -21 -22 -22 -22 -24
-6 -7 -7 -8 -8 -8 -9 -9 -9 -10 -11 -11 -12 -12 -12 -12 -13 -13 -13 -14 -14 -14 -14 -14 -14 -14 -14 -15 -16 -16 -17 -18 -18 -19 -20 -20 -21 -21 -21 -22 -22 -22 -23 -23
-8 -8 -8 -9 -9 -9 -9 -10 -11 -11 -12 -12 -12 -12 -13 -13 -14 -14 -14 -14 -15 -14 -14 -14 -15 -15 -15 -16 -17 -18 -18 -19 -19 -20 -21 -21 -22 -22 -22 -22 -22 -22 -22 -23
-9 -9 -9 -9 -10 -10 -11 -11 -12 -12 -12 -13 -13 -13 -14 -14 -15 -15 -15 -15 -15 -15 -15 -15 -15 -16 -16 -17 -18 -19 -19 -20 -20 -21 -21 -22 -22 -22 -22 -22 -22 -22 -23 -23
-9 -9 -10 -10 -11 -11 -12 -12 -12 -13 -13 -13 -14 -14 -15 -15 -15 -15 -15 -15 -15 -15 -16 -16 -16 -17 -18 -19 -19 -20 -20 -21 -21 -22 -22 -22 -22 -23 -23 -23 -23 -23 -23 -23
-10 -10 -11 -11 -12 -12 -12 -13 -13 -13 -14 -14 -14 -15 -15 -15 -15 -16 -16 -16 -16 -16 -17 -17 -18 -18 -19 -20 -20 -20 -21 -21 -22 -22 -23 -23 -23 -23 -23 -23 -23 -23 -24 -24
-11 -12 -12 -12 -12 -13 -13 -13 -14 -14 -14 -15 -15 -15 -16 -16 -16 -16 -16 -17 -17 -17 -18 -18 -19 -20 -20 -20 -21 -21 -21 -22 -22 -23 -23 -23 -23 -23 -23 -24 -24 -24 -24 -24

GFSNGP_700_temp_060.txt.gz
Temp
6 6 6 6 6 6 6 6 6 6 6 6 6 6 6 6 6 6 6 5 5 5 5 4 3 3 2 2 2 1 1 0 0 -0 -0 -2 -3 -3 -2 -3 -3 -5 -4 -6
6 6 6 6 6 6 6 6 6 5 5 5 6 6 6 6 6 6 6 5 5 5 4 4 3 2 2 1 1 1 0 -0 -1 -1 -1 -3 -2 -3 -3 -3 -4 -5 -5 -6
5 5 5 5 6 6 6 6 6 5 6 5 5 5 5 5 5 5 5 5 4 4 4 4 3 2 2 2 1 1 -0 -1 -1 -2 -3 -2 -3 -3 -4 -4 -6 -7 -7 -7
6 4 -1 6 5 5 5 5 5 5 5 5 5 5 5 5 5 5 4 4 3 3 3 3 2 2 1 1 0 -0 -1 -2 -2 -4 -2 -3 -3 -4 -5 -6 -6 -7 -8 -9
5 4 5 5 5 5 5 5 5 5 5 5 5 4 4 4 4 3 3 3 3 3 2 1 1 0 0 -0 -1 -2 -2 -3 -3 -4 -3 -3 -4 -6 -6 -6 -7 -8 -9 -10
4 4 -1 5 5 5 4 4 5 4 4 4 4 4 3 3 3 3 2 2 2 1 1 0 -0 -0 -1 -2 -3 -3 -4 -4 -4 -4 -5 -6 -6 -6 -7 -8 -8 -9 -9 -10
5 4 4 5 4 4 3 5 5 4 4 4 3 3 3 3 2 2 1 1 1 0 -0 -1 -1 -2 -3 -4 -5 -5 -5 -4 -5 -6 -6 -6 -7 -7 -8 -9 -9 -9 -10 -10
3 3 2 4 4 4 5 4 4 4 4 3 3 2 2 2 1 1 1 1 0 -0 -1 -1 -2 -3 -4 -5 -4 -5 -6 -6 -6 -7 -7 -8 -8 -8 -9 -9 -9 -10 -10 -10
4 4 4 5 5 4 4 3 3 3 3 3 2 2 1 1 1 1 0 0 -0 -1 -2 -2 -3 -4 -5 -5 -5 -6 -6 -7 -7 -8 -8 -8 -9 -9 -10 -10 -10 -10 -10 -10
4 4 4 4 4 4 4 4 2 2 2 2 1 1 1 1 0 0 -0 -1 -1 -2 -3 -4 -4 -5 -5 -6 -6 -7 -7 -8 -8 -8 -9 -9 -10 -10 -10 -10 -10 -11 -11 -11
4 3 4 5 4 4 3 3 2 2 2 1 1 1 1 0 -0 -1 -1 -1 -2 -4 -5 -5 -5 -5 -6 -6 -7 -8 -8 -8 -9 -9 -10 -10 -10 -10 -10 -10 -11 -11 -11 -12
4 3 3 4 4 3 3 2 2 2 1 1 1 0 -0 -0 -1 -1 -2 -3 -5 -5 -5 -5 -6 -7 -7 -8 -8 -9 -9 -9 -9 -10 -10 -10 -10 -10 -11 -11 -11 -12 -13 -13
3 3 3 3 3 3 2 2 2 1 1 1 0 -0 -0 -1 -2 -2 -4 -5 -6 -6 -6 -7 -8 -8 -8 -9 -9 -9 -10 -10 -10 -10 -10 -10 -11 -11 -10 -11 -11 -12 -13 -14
3 2 2 3 3 2 2 2 1 1 1 0 -0 -1 -2 -2 -3 -4 -5 -6 -6 -7 -7 -8 -8 -9 -9 -9 -10 -10 -10 -10 -11 -11 -11 -11 -11 -11 -11 -12 -11 -12 -14 -15
3 3 3 3 2 2 2 1 1 0 -0 -1 -1 -2 -3 -3 -5 -6 -7 -7 -7 -8 -9 -9 -9 -10 -10 -10 -10 -11 -11 -11 -11 -11 -11 -12 -12 -12 -13 -14 -14 -15 -15 -15
2 2 2 2 1 1 1 1 0 -0 -1 -1 -2 -3 -4 -5 -6 -7 -7 -8 -9 -10 -10 -10 -10 -10 -11 -11 -11 -11 -11 -12 -12 -12 -12 -12 -13 -13 -14 -15 -16 -17 -17 -17
-0 -1 -1 -0 0 -0 -0 -1 -1 -1 -2 -3 -4 -5 -5 -6 -7 -8 -9 -10 -11 -11 -11 -11 -11 -11 -11 -11 -12 -12 -12 -12 -12 -13 -13 -13 -14 -15 -16 -17 -17 -18 -19 -20
-1 -1 -1 -1 -1 -1 -2 -2 -3 -4 -4 -5 -5 -6 -7 -8 -9 -9 -10 -11 -12 -11 -11 -12 -12 -12 -12 -12 -12 -12 -13 -13 -13 -14 -14 -15 -16 -17 -17 -18 -19 -19 -20 -20
-2 -1 -1 -2 -2 -3 -4 -4 -4 -5 -6 -6 -6 -7 -9 -9 -10 -10 -12 -12 -12 -12 -12 -12 -12 -12 -13 -13 -13 -13 -13 -14 -14 -15 -15 -16 -17 -18 -19 -19 -20 -21 -21 -21
-3 -3 -3 -3 -3 -4 -5 -5 -6 -7 -7 -8 -8 -9 -9 -10 -11 -12 -13 -12 -12 -12 -13 -13 -13 -13 -13 -13 -13 -14 -14 -14 -15 -16 -16 -17 -18 -19 -20 -20 -21 -21 -21 -21
-3 -4 -4 -4 -4 -5 -7 -8 -8 -8 -9 -9 -9 -10 -11 -12 -13 -12 -12 -13 -13 -13 -13 -13 -14 -14 -14 -14 -14 -15 -15 -15 -16 -17 -18 -18 -19 -20 -21 -21 -21 -22 -22 -22
-5 -5 -6 -7 -8 -8 -9 -9 -9 -9 -9 -10 -11 -12 -13 -12 -12 -13 -13 -13 -13 -14 -14 -14 -14 -14 -15 -15 -15 -15 -16 -16 -17 -18 -19 -19 -20 -21 -21 -22 -22 -22 -22 -22
-6 -7 -8 -8 -9 -9 -9 -9 -10 -10 -11 -11 -12 -13 -13 -13 -13 -13 -13 -14 -14 -14 -15 -15 -15 -15 -15 -15 -16 -16 -17 -18 -18 -19 -20 -20 -21 -21 -22 -22 -22 -22 -23 -23
-8 -8 -9 -9 -9 -9 -10 -10 -11 -11 -12 -13 -13 -13 -13 -13 -14 -14 -14 -15 -15 -15 -15 -15 -15 -16 -16 -16 -17 -17 -18 -19 -19 -20 -20 -21 -22 -22 -23 -23 -23 -23 -23 -23
-9 -9 -9 -10 -10 -10 -11 -11 -12 -12 -13 -13 -13 -14 -14 -14 -15 -15 -15 -15 -16 -16 -16 -16 -16 -16 -17 -17 -18 -18 -19 -20 -21 -21 -21 -22 -22 -23 -23 -23 -23 -23 -23 -23
-10 -10 -10 -11 -11 -11 -12 -12 -13 -13 -13 -13 -14 -14 -15 -15 -15 -16 -16 -16 -16 -16 -17 -17 -17 -17 -18 -18 -19 -20 -21 -21 -21 -22 -22 -23 -23 -23 -23 -23 -23 -23 -24 -24
-11 -11 -11 -12 -12 -13 -13 -13 -13 -14 -14 -14 -15 -15 -16 -16 -16 -17 -17 -17 -17 -17 -17 -18 -18 -18 -19 -20 -20 -21 -22 -22 -22 -22 -23 -23 -24 -24 -24 -24 -24 -24 -24 -24

GFSNGP_700_temp_063.txt.gz
Temp
6 6 6 6 6 6 6 6 5 6 6 6 6 6 6 6 6 6 6 6 6 5 5 5 4 4 3 2 2 2 1 1 1 0 -0 -1 -1 -2 -2 -4 -3 -5 -4 -5
6 6 6 6 6 6 6 6 5 5 5 6 6 6 5 5 6 6 6 6 6 5 5 5 4 4 3 3 2 2 1 1 0 0 0 -1 -1 -2 -3 -3 -4 -4 -5 -6
5 6 5 4 6 6 6 6 6 5 6 6 5 5 5 5 5 5 5 5 5 5 4 4 4 4 3 3 2 2 1 0 0 -0 -3 -3 -2 -3 -3 -3 -4 -6 -6 -6
5 4 1 5 6 6 6 6 5 5 5 5 5 4 4 4 4 4 4 4 4 4 4 3 3 3 3 2 1 1 0 -0 -1 -3 -3 -3 -3 -5 -5 -5 -6 -6 -7 -8
4 3 5 5 5 6 5 5 5 5 5 4 4 4 4 4 4 3 3 3 3 3 3 3 2 2 2 1 0 -0 -1 -2 -3 -3 -3 -4 -4 -5 -6 -6 -6 -7 -7 -8
4 4 2 5 5 5 5 5 6 5 5 4 4 4 4 3 3 3 3 3 3 2 2 2 1 1 0 -0 -1 -1 -2 -4 -4 -5 -4 -5 -5 -6 -6 -6 -7 -7 -8 -9
4 4 5 5 5 5 4 5 5 4 4 4 4 4 3 3 3 3 2 2 2 1 1 1 0 -0 -1 -1 -2 -3 -4 -5 -5 -5 -5 -6 -6 -7 -7 -7 -8 -8 -9 -9
3 3 3 5 5 5 5 5 5 4 3 3 3 3 3 2 2 2 1 1 1 1 0 -0 -1 -2 -2 -3 -4 -5 -5 -5 -5 -6 -6 -7 -8 -8 -8 -8 -9 -9 -9 -10
5 5 5 5 5 5 5 4 4 4 3 3 3 2 2 2 1 1 1 0 0 -0 -1 -1 -2 -2 -4 -5 -5 -6 -6 -6 -6 -7 -7 -8 -8 -9 -9 -9 -10 -10 -10 -10
4 5 5 5 4 4 4 4 4 4 3 2 2 2 1 1 1 0 0 -0 -0 -1 -2 -3 -4 -5 -5 -6 -6 -6 -6 -7 -7 -8 -8 -9 -9 -10 -10 -10 -10 -10 -10 -10
4 4 4 4 4 4 4 4 3 3 3 2 2 1 1 1 0 0 -0 -1 -1 -2 -3 -4 -5 -6 -6 -6 -6 -7 -7 -8 -8 -9 -9 -9 -10 -10 -10 -10 -10 -11 -11 -11
4 4 3 4 3 3 2 3 3 3 2 2 1 1 1 0 0 -0 -1 -1 -2 -3 -5 -6 -6 -6 -6 -7 -7 -8 -8 -9 -9 -9 -10 -10 -10 -10 -11 -11 -11 -11 -11 -12
3 3 3 3 3 3 2 3 2 2 2 1 1 0 0 0 -0 -1 -2 -2 -4 -5 -5 -6 -6 -6 -7 -8 -8 -9 -9 -10 -10 -10 -10 -10 -10 -11 -11 -11 -11 -12 -12 -13
2 3 3 3 3 3 3 2 2 2 1 1 1 0 0 -1 -1 -2 -3 -4 -5 -5 -6 -6 -7 -8 -9 -9 -9 -10 -10 -10 -10 -11 -11 -11 -11 -11 -11 -11 -11 -12 -13 -14
2 3 3 3 3 2 2 2 2 1 1 1 0 -0 -1 -2 -2 -3 -4 -6 -6 -6 -7 -8 -9 -9 -10 -10 -10 -10 -11 -11 -11 -11 -11 -12 -12 -12 -12 -12 -12 -13 -14 -15
1 2 2 3 3 2 2 2 1 1 1 0 -0 -1 -2 -2 -3 -4 -6 -6 -6 -7 -8 -9 -10 -11 -11 -11 -11 -11 -11 -11 -12 -12 -12 -12 -12 -13 -13 -13 -14 -15 -15 -16
-0 1 1 1 1 0 0 -0 0 -1 -1 -2 -2 -3 -3 -4 -5 -5 -6 -7 -8 -9 -9 -10 -11 -11 -11 -11 -12 -12 -12 -12 -12 -13 -13 -13 -13 -13 -14 -15 -15 -16 -17 -18
0 -1 -1 -1 -2 -1 -1 -2 -2 -2 -2 -3 -4 -5 -5 -6 -6 -7 -8 -8 -9 -10 -11 -12 -12 -12 -12 -12 -12 -12 -13 -13 -13 -13 -13 -14 -14 -15 -15 -16 -17 -18 -19 -19
-1 -2 -2 -2 -2 -2 -3 -3 -3 -3 -4 -5 -5 -6 -7 -7 -8 -9 -9 -10 -11 -11 -12 -12 -12 -12 -13 -13 -13 -13 -13 -13 -14 -14 -14 -15 -15 -16 -16 -17 -18 -19 -20 -20
-2 -2 -3 -3 -3 -3 -3 -4 -4 -5 -5 -6 -6 -7 -8 -9 -10 -10 -10 -11 -12 -13 -12 -13 -13 -13 -13 -14 -14 -14 -14 -14 -14 -15 -15 -16 -16 -17 -18 -19 -19 -20 -21 -21
-3 -3 -3 -3 -4 -5 -5 -6 -6 -6 -6 -7 -8 -9 -10 -10 -10 -12 -13 -13 -13 -13 -13 -13 -14 -14 -14 -14 -14 -14 -15 -15 -15 -16 -16 -17 -18 -18 -19 -20 -20 -21 -22 -22
-4 -5 -5 -5 -6 -7 -7 -7 -8 -8 -9 -9 -10 -10 -10 -11 -13 -13 -13 -13 -13 -14 -14 -14 -14 -14 -15 -15 -15 -15 -16 -16 -16 -17 -17 -18 -19 -19 -20 -20 -21 -22 -22 -22
-6 -6 -7 -8 -8 -8 -9 -9 -9 -10 -10 -10 -11 -11 -12 -13 -13 -13 -13 -14 -14 -14 -14 -15 -15 -15 -16 -16 -16 -16 -17 -17 -17 -18 -19 -19 -20 -20 -21 -21 -22 -22 -23 -23
-8 -8 -9 -9 -9 -10 -10 -10 -10 -10 -11 -12 -12 -13 -13 -13 -14 -14 -14 -14 -15 -15 -15 -16 -16 -16 -17 -17 -17 -17 -18 -18 -18 -19 -20 -20 -21 -21 -22 -22 -23 -23 -23 -23
-9 -9 -10 -10 -10 -10 -10 -11 -11 -12 -12 -12 -13 -13 -13 -14 -14 -14 -15 -15 -15 -16 -16 -17 -17 -17 -18 -18 -18 -18 -19 -19 -20 -20 -21 -21 -22 -22 -22 -23 -23 -24 -24 -24
-10 -10 -10 -11 -11 -11 -12 -12 -12 -13 -13 -13 -14 -14 -15 -15 -15 -16 -16 -16 -17 -17 -17 -18 -18 -18 -19 -19 -19 -20 -20 -20 -21 -22 -22 -22 -23 -23 -23 -24 -24 -24 -24 -24
-11 -11 -11 -12 -12 -12 -13 -13 -13 -14 -14 -14 -15 -15 -16 -16 -16 -17 -17 -18 -18 -18 -18 -19 -19 -20 -20 -20 -21 -21 -22 -22 -22 -23 -23 -23 -23 -23 -24 -24 -25 -25 -25 -25